Time,TemperatureF,DewpointF,PressureIn,WindDirection,WindDirectionDegrees,WindSpeedMPH,WindSpeedGustMPH,Humidity,HourlyPrecipIn,Conditions,Clouds,dailyrainin,SoftwareType,DateUTC
2013-04-21 00:06:00,-999.0,-99.9,30.45,North,-999,-999.0,-999.0,-999,-99.99,,,0.00,weatherlink.com 1.10,2013-04-21 04:06:00,
2013-04-21 00:21:00,-999.0,-99.9,30.45,North,-999,-999.0,-999.0,-999,-99.99,,,0.00,weatherlink.com 1.10,2013-04-21 04:21:00,
2013-04-21 00:36:00,-999.0,-99.9,30.45,North,-999,-999.0,-999.0,-999,-99.99,,,0.00,weatherlink.com 1.10,2013-04-21 04:36:00,
2013-04-21 00:51:00,-999.0,-99.9,30.46,North,-999,-999.0,-999.0,-999,-99.99,,,0.00,weatherlink.com 1.10,2013-04-21 04:51:00,
2013-04-21 01:06:00,-999.0,-99.9,30.46,North,-999,-999.0,-999.0,-999,-99.99,,,0.00,weatherlink.com 1.10,2013-04-21 05:06:00,
2013-04-21 01:21:00,-999.0,-99.9,30.47,North,-999,-999.0,-999.0,-999,-99.99,,,0.00,weatherlink.com 1.10,2013-04-21 05:21:00,
2013-04-21 01:36:00,-999.0,-99.9,30.47,North,-999,-999.0,-999.0,-999,-99.99,,,0.00,weatherlink.com 1.10,2013-04-21 05:36:00,
2013-04-21 01:51:00,-999.0,-99.9,30.48,North,-999,-999.0,-999.0,-999,-99.99,,,0.00,weatherlink.com 1.10,2013-04-21 05:51:00,
2013-04-21 02:06:00,-999.0,-99.9,30.48,North,-999,-999.0,-999.0,-999,-99.99,,,0.00,weatherlink.com 1.10,2013-04-21 06:06:00,
2013-04-21 02:22:00,-999.0,-99.9,30.49,North,-999,-999.0,-999.0,-999,-99.99,,,0.00,weatherlink.com 1.10,2013-04-21 06:22:00,
2013-04-21 02:37:00,-999.0,-99.9,30.49,North,-999,-999.0,-999.0,-999,-99.99,,,0.00,weatherlink.com 1.10,2013-04-21 06:37:00,
2013-04-21 02:52:00,-999.0,-99.9,30.50,North,-999,-999.0,-999.0,-999,-99.99,,,0.00,weatherlink.com 1.10,2013-04-21 06:52:00,
2013-04-21 03:07:00,-999.0,-99.9,30.50,North,-999,-999.0,-999.0,-999,-99.99,,,0.00,weatherlink.com 1.10,2013-04-21 07:07:00,
2013-04-21 03:22:00,-999.0,-99.9,30.50,North,-999,-999.0,-999.0,-999,-99.99,,,0.00,weatherlink.com 1.10,2013-04-21 07:22:00,
2013-04-21 03:37:00,-999.0,-99.9,30.51,North,-999,-999.0,-999.0,-999,-99.99,,,0.00,weatherlink.com 1.10,2013-04-21 07:37:00,
2013-04-21 03:52:00,-999.0,-99.9,30.51,North,-999,-999.0,-999.0,-999,-99.99,,,0.00,weatherlink.com 1.10,2013-04-21 07:52:00,
2013-04-21 04:07:00,-999.0,-99.9,30.51,North,-999,-999.0,-999.0,-999,-99.99,,,0.00,weatherlink.com 1.10,2013-04-21 08:07:00,
2013-04-21 04:22:00,-999.0,-99.9,30.52,North,-999,-999.0,-999.0,-999,-99.99,,,0.00,weatherlink.com 1.10,2013-04-21 08:22:00,
2013-04-21 04:37:00,-999.0,-99.9,30.52,North,-999,-999.0,-999.0,-999,-99.99,,,0.00,weatherlink.com 1.10,2013-04-21 08:37:00,
2013-04-21 04:52:00,-999.0,-99.9,30.52,North,-999,-999.0,-999.0,-999,-99.99,,,0.00,weatherlink.com 1.10,2013-04-21 08:52:00,
2013-04-21 05:07:00,-999.0,-99.9,30.52,North,-999,-999.0,-999.0,-999,-99.99,,,0.00,weatherlink.com 1.10,2013-04-21 09:07:00,
2013-04-21 05:22:00,-999.0,-99.9,30.53,North,-999,-999.0,-999.0,-999,-99.99,,,0.00,weatherlink.com 1.10,2013-04-21 09:22:00,
2013-04-21 05:38:00,-999.0,-99.9,30.53,North,-999,-999.0,-999.0,-999,-99.99,,,0.00,weatherlink.com 1.10,2013-04-21 09:38:00,
2013-04-21 05:53:00,-999.0,-99.9,30.54,North,-999,-999.0,-999.0,-999,-99.99,,,0.00,weatherlink.com 1.10,2013-04-21 09:53:00,
2013-04-21 06:08:00,-999.0,-99.9,30.55,North,-999,-999.0,-999.0,-999,-99.99,,,0.00,weatherlink.com 1.10,2013-04-21 10:08:00,
2013-04-21 06:23:00,-999.0,-99.9,30.56,North,-999,-999.0,-999.0,-999,-99.99,,,0.00,weatherlink.com 1.10,2013-04-21 10:23:00,
2013-04-21 06:38:00,-999.0,-99.9,30.57,North,-999,-999.0,-999.0,-999,-99.99,,,0.00,weatherlink.com 1.10,2013-04-21 10:38:00,
2013-04-21 06:53:00,-999.0,-99.9,30.57,North,-999,-999.0,-999.0,-999,-99.99,,,0.00,weatherlink.com 1.10,2013-04-21 10:53:00,
2013-04-21 07:08:00,-999.0,-99.9,30.58,North,-999,-999.0,-999.0,-999,-99.99,,,0.00,weatherlink.com 1.10,2013-04-21 11:08:00,
2013-04-21 07:23:00,-999.0,-99.9,30.58,North,-999,-999.0,-999.0,-999,-99.99,,,0.00,weatherlink.com 1.10,2013-04-21 11:23:00,
2013-04-21 07:38:00,-999.0,-99.9,30.59,North,-999,-999.0,-999.0,-999,-99.99,,,0.00,weatherlink.com 1.10,2013-04-21 11:38:00,
2013-04-21 07:53:00,-999.0,-99.9,30.59,North,-999,-999.0,-999.0,-999,-99.99,,,0.00,weatherlink.com 1.10,2013-04-21 11:53:00,
2013-04-21 08:08:00,-999.0,-99.9,30.59,North,-999,-999.0,-999.0,-999,-99.99,,,0.00,weatherlink.com 1.10,2013-04-21 12:08:00,
2013-04-21 08:23:00,28.0,22.0,30.60,East,94,0.0,-999.0,78,-99.99,,,0.00,weatherlink.com 1.10,2013-04-21 12:23:00,
2013-04-21 08:38:00,28.6,22.0,30.60,ESE,110,1.0,-999.0,77,-99.99,,,0.00,weatherlink.com 1.10,2013-04-21 12:38:00,
2013-04-21 08:53:00,28.3,22.0,30.61,SE,146,8.0,-999.0,76,-99.99,,,0.00,weatherlink.com 1.10,2013-04-21 12:53:00,
2013-04-21 09:08:00,28.4,22.0,30.61,South,173,0.0,-999.0,76,-99.99,,,0.00,weatherlink.com 1.10,2013-04-21 13:08:00,
2013-04-21 09:23:00,28.7,22.0,30.61,SSE,165,3.0,-999.0,76,-99.99,,,0.00,weatherlink.com 1.10,2013-04-21 13:23:00,
2013-04-21 09:38:00,29.1,23.0,30.61,South,172,1.0,-999.0,77,-99.99,,,0.00,weatherlink.com 1.10,2013-04-21 13:38:00,
2013-04-21 09:53:00,29.3,23.0,30.61,South,169,6.0,-999.0,76,-99.99,,,0.00,weatherlink.com 1.10,2013-04-21 13:53:00,
2013-04-21 10:09:00,29.8,23.0,30.61,South,169,2.0,-999.0,76,-99.99,,,0.00,weatherlink.com 1.10,2013-04-21 14:09:00,
2013-04-21 10:24:00,30.4,23.0,30.61,SSE,168,2.0,-999.0,74,-99.99,,,0.00,weatherlink.com 1.10,2013-04-21 14:24:00,
2013-04-21 10:39:00,31.5,23.0,30.61,SSE,168,5.0,-999.0,72,-99.99,,,0.00,weatherlink.com 1.10,2013-04-21 14:39:00,
2013-04-21 10:54:00,32.2,24.0,30.61,SSE,168,1.0,-999.0,72,-99.99,,,0.00,weatherlink.com 1.10,2013-04-21 14:54:00,
2013-04-21 11:09:00,32.6,23.0,30.61,SSE,168,0.0,-999.0,68,-99.99,,,0.00,weatherlink.com 1.10,2013-04-21 15:09:00,
2013-04-21 11:24:00,33.5,24.0,30.61,SSE,168,4.0,-999.0,67,-99.99,,,0.00,weatherlink.com 1.10,2013-04-21 15:24:00,
2013-04-21 11:39:00,33.8,22.0,30.61,SSE,168,3.0,-999.0,62,-99.99,,,0.00,weatherlink.com 1.10,2013-04-21 15:39:00,
2013-04-21 11:54:00,34.4,22.0,30.61,East,80,2.0,-999.0,62,-99.99,,,0.00,weatherlink.com 1.10,2013-04-21 15:54:00,
2013-04-21 12:09:00,33.7,24.0,30.61,East,89,6.0,-999.0,68,-99.99,,,0.00,weatherlink.com 1.10,2013-04-21 16:09:00,
2013-04-21 12:24:00,33.8,25.0,30.60,East,82,9.0,-999.0,70,-99.99,,,0.00,weatherlink.com 1.10,2013-04-21 16:24:00,
2013-04-21 12:39:00,33.3,25.0,30.60,ENE,76,2.0,-999.0,71,-99.99,,,0.00,weatherlink.com 1.10,2013-04-21 16:39:00,
2013-04-21 12:54:00,34.1,25.0,30.59,ESE,115,0.0,-999.0,69,-99.99,,,0.00,weatherlink.com 1.10,2013-04-21 16:54:00,
2013-04-21 13:09:00,34.4,24.0,30.59,ENE,59,11.0,-999.0,67,-99.99,,,0.00,weatherlink.com 1.10,2013-04-21 17:09:00,
2013-04-21 13:24:00,34.7,25.0,30.58,East,82,7.0,-999.0,69,-99.99,,,0.00,weatherlink.com 1.10,2013-04-21 17:24:00,
2013-04-21 13:39:00,34.4,26.0,30.58,ESE,109,0.0,-999.0,71,-99.99,,,0.00,weatherlink.com 1.10,2013-04-21 17:39:00,
2013-04-21 13:54:00,33.6,25.0,30.57,ESE,109,11.0,-999.0,71,-99.99,,,0.00,weatherlink.com 1.10,2013-04-21 17:54:00,
2013-04-21 14:09:00,34.3,26.0,30.57,ENE,69,9.0,-999.0,72,-99.99,,,0.00,weatherlink.com 1.10,2013-04-21 18:09:00,
2013-04-21 14:24:00,33.9,26.0,30.56,ESE,105,5.0,-999.0,72,-99.99,,,0.00,weatherlink.com 1.10,2013-04-21 18:24:00,
2013-04-21 14:39:00,34.5,27.0,30.55,ESE,121,11.0,-999.0,73,-99.99,,,0.00,weatherlink.com 1.10,2013-04-21 18:39:00,
2013-04-21 14:54:00,34.4,27.0,30.55,ESE,113,4.0,-999.0,73,-99.99,,,0.00,weatherlink.com 1.10,2013-04-21 18:54:00,
2013-04-21 15:09:00,35.1,28.0,30.54,SE,132,11.0,-999.0,76,-99.99,,,0.00,weatherlink.com 1.10,2013-04-21 19:09:00,
2013-04-21 15:24:00,35.3,28.0,30.53,ESE,105,17.0,-999.0,74,-99.99,,,0.00,weatherlink.com 1.10,2013-04-21 19:24:00,
2013-04-21 15:39:00,34.9,28.0,30.53,SE,133,14.0,-999.0,76,-99.99,,,0.00,weatherlink.com 1.10,2013-04-21 19:39:00,
2013-04-21 15:54:00,34.4,28.0,30.52,SE,136,12.0,-999.0,77,-99.99,,,0.00,weatherlink.com 1.10,2013-04-21 19:54:00,
2013-04-21 16:09:00,34.8,28.0,30.51,ESE,113,10.0,-999.0,76,-99.99,,,0.00,weatherlink.com 1.10,2013-04-21 20:09:00,
2013-04-21 16:24:00,34.7,29.0,30.51,East,94,10.0,-999.0,78,-99.99,,,0.00,weatherlink.com 1.10,2013-04-21 20:24:00,
2013-04-21 16:39:00,34.7,29.0,30.50,ENE,63,13.0,-999.0,80,-99.99,,,0.00,weatherlink.com 1.10,2013-04-21 20:39:00,
2013-04-21 16:54:00,35.7,30.0,30.48,East,87,6.0,-999.0,80,-99.99,,,0.00,weatherlink.com 1.10,2013-04-21 20:54:00,
2013-04-21 17:09:00,35.7,30.0,30.48,ESE,116,7.0,-999.0,81,-99.99,,,0.00,weatherlink.com 1.10,2013-04-21 21:09:00,
2013-04-21 17:24:00,35.6,31.0,30.47,ESE,116,11.0,-999.0,83,-99.99,,,0.00,weatherlink.com 1.10,2013-04-21 21:24:00,
2013-04-21 17:39:00,35.6,31.0,30.46,East,92,6.0,-999.0,82,-99.99,,,0.00,weatherlink.com 1.10,2013-04-21 21:39:00,
2013-04-21 17:54:00,35.2,31.0,30.45,ESE,121,4.0,-999.0,83,-99.99,,,0.00,weatherlink.com 1.10,2013-04-21 21:54:00,
2013-04-21 18:09:00,35.5,31.0,30.44,East,98,11.0,-999.0,84,-99.99,,,0.00,weatherlink.com 1.10,2013-04-21 22:09:00,
2013-04-21 18:24:00,35.2,31.0,30.44,East,84,6.0,-999.0,85,-99.99,,,0.00,weatherlink.com 1.10,2013-04-21 22:24:00,
2013-04-21 18:39:00,35.4,31.0,30.43,ESE,109,10.0,-999.0,85,-99.99,,,0.00,weatherlink.com 1.10,2013-04-21 22:39:00,
2013-04-21 18:54:00,35.1,31.0,30.43,East,87,9.0,-999.0,86,-99.99,,,0.00,weatherlink.com 1.10,2013-04-21 22:54:00,
2013-04-21 19:09:00,35.2,33.0,30.42,ESE,113,5.0,-999.0,92,-99.99,,,0.00,weatherlink.com 1.10,2013-04-21 23:09:00,
2013-04-21 19:24:00,35.2,32.0,30.41,East,88,7.0,-999.0,87,-99.99,,,0.00,weatherlink.com 1.10,2013-04-21 23:24:00,
2013-04-21 19:39:00,35.3,32.0,30.41,East,90,7.0,-999.0,88,-99.99,,,0.00,weatherlink.com 1.10,2013-04-21 23:39:00,
2013-04-21 19:54:00,35.5,32.0,30.40,ESE,115,11.0,-999.0,87,-99.99,,,0.00,weatherlink.com 1.10,2013-04-21 23:54:00,
2013-04-21 20:09:00,-999.0,-99.9,30.40,North,-999,-999.0,-999.0,-999,-99.99,,,0.00,weatherlink.com 1.10,2013-04-22 00:09:00,
2013-04-21 20:24:00,-999.0,-99.9,30.40,North,-999,-999.0,-999.0,-999,-99.99,,,0.00,weatherlink.com 1.10,2013-04-22 00:24:00,
2013-04-21 20:39:00,-999.0,-99.9,30.40,North,-999,-999.0,-999.0,-999,-99.99,,,0.00,weatherlink.com 1.10,2013-04-22 00:39:00,
2013-04-21 20:55:00,-999.0,-99.9,30.40,North,-999,-999.0,-999.0,-999,-99.99,,,0.00,weatherlink.com 1.10,2013-04-22 00:55:00,
2013-04-21 21:10:00,-999.0,-99.9,30.40,North,-999,-999.0,-999.0,-999,-99.99,,,0.00,weatherlink.com 1.10,2013-04-22 01:10:00,
2013-04-21 21:25:00,-999.0,-99.9,30.40,North,-999,-999.0,-999.0,-999,-99.99,,,0.00,weatherlink.com 1.10,2013-04-22 01:25:00,
2013-04-21 21:40:00,-999.0,-99.9,30.40,North,-999,-999.0,-999.0,-999,-99.99,,,0.00,weatherlink.com 1.10,2013-04-22 01:40:00,
2013-04-21 21:55:00,-999.0,-99.9,30.40,North,-999,-999.0,-999.0,-999,-99.99,,,0.00,weatherlink.com 1.10,2013-04-22 01:55:00,
2013-04-21 22:10:00,-999.0,-99.9,30.40,North,-999,-999.0,-999.0,-999,-99.99,,,0.00,weatherlink.com 1.10,2013-04-22 02:10:00,
2013-04-21 22:25:00,-999.0,-99.9,30.40,North,-999,-999.0,-999.0,-999,-99.99,,,0.00,weatherlink.com 1.10,2013-04-22 02:25:00,
2013-04-21 22:40:00,-999.0,-99.9,30.40,North,-999,-999.0,-999.0,-999,-99.99,,,0.00,weatherlink.com 1.10,2013-04-22 02:40:00,
2013-04-21 22:55:00,-999.0,-99.9,30.39,North,-999,-999.0,-999.0,-999,-99.99,,,0.00,weatherlink.com 1.10,2013-04-22 02:55:00,
2013-04-21 23:10:00,-999.0,-99.9,30.39,North,-999,-999.0,-999.0,-999,-99.99,,,0.00,weatherlink.com 1.10,2013-04-22 03:10:00,
2013-04-21 23:25:00,-999.0,-99.9,30.39,North,-999,-999.0,-999.0,-999,-99.99,,,0.00,weatherlink.com 1.10,2013-04-22 03:25:00,
2013-04-21 23:40:00,-999.0,-99.9,30.38,North,-999,-999.0,-999.0,-999,-99.99,,,0.00,weatherlink.com 1.10,2013-04-22 03:40:00,
2013-04-21 23:55:00,-999.0,-99.9,30.38,North,-999,-999.0,-999.0,-999,-99.99,,,0.00,weatherlink.com 1.10,2013-04-22 03:55:00,